Weather in Kargasok

Russia / Tomsk District     59°03′24″N   80°51′38″E
temp.,
°C
wind,
m/s
gust,
m/s
humid.,
%
clouds,
%
prec.,
mm/h
press.,
hPa
HPBL,
m
14 june, mon
mon1401:00+10nne22675 0.0 101913
04:00+10nw117017 0.0 102010
07:00+13w22655 0.0 1021117
10:00+19wnw23495 0.0 1020744
13:00+24nw233914 0.0 10191248
16:00+27nw2538100 0.0 10182227
19:00+21sw7116840 0.1 1017384
22:00+19sw5106992 0.6 1016208
15 june, tue
tue1501:00+17sw513776 0.6 1016322
04:00+14sw410908 0.0 1014177
07:00+17wsw39715 0.0 1014229
10:00+23wnw465160 0.0 1013625
13:00+28wnw463591 0.0 10122664
16:00+29w4728100 0.0 10103179
19:00+26w484328 0.0 10091291
22:00+20wsw396985 0.0 1009211
16 june, wed
wed1601:00+15wsw3885100 0.3 1009159
04:00+15sw4129375 1.6 1008251
07:00+16sw41092100 1.9 1007279
10:00+22wsw4766100 0.0 1007836
13:00+22wsw587885 1.0 10071214
16:00+24wsw485631 1.7 10051431
19:00+23wsw35635 2.3 1004674
22:00+16wnw269697 1.6 1005121
17 june, thu
thu1701:00+14nw39961 2.8 1006290
04:00+12wnw279879 0.0 1006169
07:00+13nw36947 0.0 1006275
10:00+17wnw337199 0.1 10061008
13:00+18w2267100 0.1 1006867
16:00+18wnw336540 0.0 1006812
19:00+20w2262100 0.0 1005842
22:00+16w12840 0.0 100516
18 june, fri
fri1801:00+13wsw22950 0.0 100526
04:00+12ssw11950 0.0 100413
07:00+15s12840 0.0 1004105
10:00+21se22590 0.0 1003731
13:00+25se23420 0.0 10021584
16:00+24sw3550100 0.0 1002772
19:00+19w3776100 0.2 1002202
22:00+16nne2295100 0.6 100243